Weather History for Trieste, Italy

Change the Weather History Date:

Friday, December 13, 2013

  Actual Average Record
Temperature  
Mean Temperature 41 °F -  
Max Temperature 45 °F 46 °F 60 °F (2006)
Min Temperature 37 °F 39 °F 24 °F (2001)
Degree Days  
Heating Degree Days 24    
Moisture  
Dew Point 38 °F    
Average Humidity 87    
Maximum Humidity 100    
Minimum Humidity 73    
Precipitation  
Precipitation 0.00 in 0.11 in - ()
Sea Level Pressure  
Sea Level Pressure 30.27 in    
Wind  
Wind Speed 3 mph ()    
Max Wind Speed 7 mph    
Max Gust Speed -    
Visibility 2.7 miles    
Events      
Averages and records for this station are not official NWS values.
T = Trace of Precipitation, MM = Missing Value Source: Averaged Metar Reports

Daily Weather History Graph

Daily Weather History Graph

Search for Another Location

Airport:

Trip Planner

Search our weather history database for the weather conditions in past years. The results will help you decide how hot, cold, wet, or windy it might be!

Date:

Astronomy

Dec. 13, 2013 Rise Set
Actual Time 7:37 AM CET 4:21 PM CET
Civil Twilight 7:03 AM CET 4:55 PM CET
Nautical Twilight 6:25 AM CET 5:32 PM CET
Astronomical Twilight 5:49 AM CET 6:09 PM CET
Moon 2:01 PM CET (12/13) 3:34 AM CET (12/13)
Length of Visible Light 9h 52m
Length of Day
8h 43m
Waxing Gibbous, 86% of the Moon is Illuminated
Dec 13
Waxing Gibbous
Dec 17
Full
Dec 25
Last Quarter
Jan 1
New
Jan 8
First Quarter

Hourly Weather History & Observations

Time (CET) Temp. Windchill Dew Point Humidity Pressure Visibility Wind Dir Wind Speed Gust Speed Precip Events Conditions
12:00 AM 39 °F - 36 °F 87% 30.37 in 12 mi NE 4.6 mph - -  
12:55 AM 39.2 °F 37.0 °F 35.6 °F 87% 30.33 in - NNE 3.5 mph - N/A   Clear
1:00 AM 39 °F - 36 °F 86% 30.35 in 12 mi NNE 3.5 mph - -  
1:55 AM 39.2 °F 37.0 °F 37.4 °F 93% 30.33 in - NE 3.5 mph - N/A   Clear
2:55 AM 39.2 °F 35.9 °F 37.4 °F 93% 30.33 in - NE 4.6 mph - N/A   Clear
3:55 AM 37.4 °F 33.8 °F 37.4 °F 100% 30.30 in - NE 4.6 mph - N/A   Clear
4:55 AM 37.4 °F - 35.6 °F 93% 30.30 in - NE 2.3 mph - N/A   Clear
5:55 AM 37.4 °F 33.8 °F 35.6 °F 93% 30.24 in - NE 4.6 mph - N/A   Clear
6:00 AM 37 °F - 35 °F 90% 30.27 in 6 mi NE 4.6 mph - -  
6:55 AM 37.4 °F 33.8 °F 35.6 °F 93% 30.27 in - NE 4.6 mph - N/A   Clear
7:55 AM 41.0 °F 37.1 °F 39.2 °F 93% 30.27 in 2.5 mi ENE 5.8 mph - N/A   Scattered Clouds
8:00 AM 41 °F - 38 °F 86% 30.30 in 2 mi ENE 5.8 mph - -   Mist
8:55 AM 41.0 °F 38.0 °F 37.4 °F 87% 30.27 in 2.5 mi ENE 4.6 mph - N/A   Mostly Cloudy
9:00 AM 41 °F - 37 °F 81% 30.30 in 2 mi ENE 4.6 mph - -   Mist
9:55 AM 42.8 °F - 39.2 °F 87% 30.27 in 2.5 mi ENE 1.2 mph - N/A   Mostly Cloudy
10:55 AM 42.8 °F - 37.4 °F 81% 30.27 in 1.9 mi NW 2.3 mph - N/A   Mostly Cloudy
11:00 AM 44 °F - 38 °F 73% 30.29 in 1 mi NW 2.3 mph - -   Mist
11:55 AM 44.6 °F - 39.2 °F 81% 30.27 in 1.9 mi South 1.2 mph - N/A   Overcast
12:00 PM 45 °F - 39 °F 74% 30.28 in 1 mi South 1.2 mph - -   Mist
12:55 PM 44.6 °F - 39.2 °F 81% 30.24 in 1.9 mi WSW 2.3 mph - N/A   Overcast
1:00 PM 45 °F - 39 °F 73% 30.26 in 1 mi WSW 2.3 mph - -   Mist
1:55 PM 44.6 °F - 39.2 °F 81% 30.24 in 1.9 mi South 1.2 mph - N/A   Overcast
2:55 PM 44.6 °F - 39.2 °F 81% 30.21 in 1.6 mi NNW 1.2 mph - N/A   Overcast
3:00 PM 45 °F - 39 °F 74% 30.24 in 1 mi NNW 1.2 mph - -   Mist
3:55 PM 44.6 °F 43.1 °F 41.0 °F 87% 30.21 in 1.6 mi ENE 3.5 mph - N/A   Overcast
4:55 PM 42.8 °F 41.1 °F 41.0 °F 93% 30.21 in 1.6 mi NNE 3.5 mph - N/A   Overcast
5:55 PM 42.8 °F 41.1 °F 41.0 °F 93% 30.21 in 1.6 mi ENE 3.5 mph - N/A   Overcast
6:00 PM 43 °F - 40 °F 85% 30.23 in 1 mi ENE 3.5 mph - -   Mist
6:55 PM 42.8 °F - 41.0 °F 93% 30.21 in 2.5 mi North 1.2 mph - N/A   Overcast
7:00 PM 43 °F - 40 °F 87% 30.24 in 2 mi North 1.2 mph - -   Mist
7:55 PM 42.8 °F 40.1 °F 41.0 °F 93% 30.24 in 2.5 mi NE 4.6 mph - N/A   Overcast
8:55 PM 42.8 °F 38.6 °F 39.2 °F 87% 30.24 in 2.5 mi NE 6.9 mph - N/A   Overcast
9:00 PM 43 °F - 39 °F 81% 30.25 in 2 mi NE 6.9 mph - -   Mist
9:55 PM 41.0 °F 36.4 °F 39.2 °F 93% 30.24 in 2.5 mi NE 6.9 mph - N/A   Overcast
10:55 PM 42.8 °F - 39.2 °F 87% 30.24 in 2.5 mi ENE 2.3 mph - N/A   Overcast
11:00 PM 42 °F - 39 °F 87% 30.26 in 2 mi ENE 2.3 mph - -   Mist
11:55 PM 42.8 °F 40.1 °F 39.2 °F 87% 30.24 in 2.5 mi ENE 4.6 mph - N/A   Overcast